This is the latest recevied weather packets stored in our database for station/object KA1JKB. If no packets are shown the sender has not sent any weather packets the latest 10 day(s).
| Time | Temp. | Humidity | Pressure | Rain* | Wind** | Luminosity | Snow |
|---|---|---|---|---|---|---|---|
| 1777495884 | 10° C | 88% | 1008 hPa | 0 mm | - | 94 W/m² | - |
| 1777495580 | 10° C | 87% | 1007.9 hPa | 0 mm | - | 75 W/m² | - |
| 1777495276 | 10° C | 87% | 1007.9 hPa | 0 mm | - | 77 W/m² | - |
| 1777494974 | 10° C | 86% | 1007.9 hPa | 0 mm | - | 64 W/m² | - |
| 1777494671 | 10° C | 87% | 1007.9 hPa | 0 mm | - | 95 W/m² | - |
| 1777494368 | 10° C | 86% | 1007.9 hPa | 0 mm | - | 88 W/m² | - |
| 1777494064 | 10° C | 86% | 1007.9 hPa | 0 mm | - | 69 W/m² | - |
| 1777493762 | 10° C | 87% | 1008 hPa | 0 mm | - | 76 W/m² | - |
| 1777493460 | 10° C | 86% | 1007.8 hPa | 0 mm | - | 83 W/m² | - |
| 1777493155 | 10° C | 87% | 1008 hPa | 0 mm | - | 78 W/m² | - |
| 1777492853 | 10° C | 88% | 1008 hPa | 0 mm | - | 76 W/m² | - |
| 1777492549 | 10° C | 88% | 1008.2 hPa | 0 mm | - | 78 W/m² | - |
| 1777492245 | 10° C | 88% | 1008.2 hPa | 0 mm | - | 85 W/m² | - |
| 1777491943 | 10° C | 88% | 1007.9 hPa | 0 mm | - | 88 W/m² | - |
| 1777491638 | 10° C | 88% | 1007.9 hPa | 0 mm | - | 100 W/m² | - |
| 1777491336 | 10° C | 89% | 1008.1 hPa | 0 mm | - | 91 W/m² | - |
| 1777491033 | 10° C | 90% | 1008.1 hPa | 0 mm | - | 92 W/m² | - |
| 1777490728 | 10° C | 89% | 1008.2 hPa | 0 mm | - | 107 W/m² | - |
| 1777490426 | 10° C | 88% | 1008.4 hPa | 1.27 mm | - | 89 W/m² | - |
| 1777490122 | 10° C | 88% | 1008.2 hPa | 1.27 mm | - | 105 W/m² | - |
| 1777489820 | 10° C | 87% | 1008.3 hPa | 0 mm | - | 106 W/m² | - |
| 1777489517 | 10° C | 88% | 1008.3 hPa | 0 mm | - | 100 W/m² | - |
| 1777489213 | 10° C | 90% | 1007.9 hPa | 0 mm | - | 94 W/m² | - |
| 1777488910 | 10° C | 90% | 1007.9 hPa | 0 mm | - | 165 W/m² | - |
| 1777488608 | 10° C | 91% | 1008 hPa | 0 mm | - | 128 W/m² | - |
* Rain latest hour (hover to see other rain measurements)
** Current wind speed in m/s (hover to see current wind gust speed)